TimeCDT,TemperatureF,Dew PointF,Humidity,Sea Level PressureIn,VisibilityMPH,Wind Direction,Wind SpeedMPH,Gust SpeedMPH,PrecipitationIn,Events,Conditions,WindDirDegrees,DateUTC
12:15 AM,78.4,66.0,66,30.08,10.0,SE,6.9,-,N/A,,Scattered Clouds,140,2013-09-06 05:15:00
12:35 AM,78.1,65.3,65,30.08,10.0,SSE,6.9,-,N/A,,Clear,150,2013-09-06 05:35:00
12:55 AM,77.9,65.1,65,30.08,10.0,SSE,3.5,-,N/A,,Clear,150,2013-09-06 05:55:00
1:15 AM,76.5,66.6,71,30.07,10.0,Calm,Calm,-,N/A,,Clear,0,2013-09-06 06:15:00
1:35 AM,77.7,64.9,65,30.07,10.0,SSE,5.8,-,0.01,,Clear,150,2013-09-06 06:35:00
1:55 AM,77.0,65.5,67,30.07,10.0,Calm,Calm,-,0.01,,Clear,0,2013-09-06 06:55:00
2:15 AM,77.5,64.8,65,30.07,10.0,SSE,6.9,-,N/A,,Clear,160,2013-09-06 07:15:00
2:35 AM,77.7,64.8,64,30.07,10.0,SSE,8.1,-,N/A,,Clear,160,2013-09-06 07:35:00
2:55 AM,77.4,64.8,65,30.07,10.0,SSE,5.8,-,N/A,,Clear,160,2013-09-06 07:55:00
3:15 AM,77.0,65.3,67,30.06,10.0,South,4.6,-,N/A,,Clear,190,2013-09-06 08:15:00
3:35 AM,78.3,64.9,63,30.06,10.0,South,4.6,-,N/A,,Clear,180,2013-09-06 08:35:00
3:55 AM,76.6,66.0,70,30.06,10.0,SSE,4.6,-,N/A,,Clear,160,2013-09-06 08:55:00
4:15 AM,76.1,65.8,70,30.07,10.0,South,3.5,-,N/A,,Clear,180,2013-09-06 09:15:00
4:35 AM,76.3,65.3,69,30.07,10.0,SSE,4.6,-,N/A,,Clear,160,2013-09-06 09:35:00
4:55 AM,76.3,65.3,69,30.07,10.0,South,4.6,-,N/A,,Clear,180,2013-09-06 09:55:00
5:15 AM,75.9,65.7,70,30.07,10.0,SSE,4.6,-,N/A,,Clear,160,2013-09-06 10:15:00
5:35 AM,76.3,65.5,69,30.07,10.0,South,5.8,-,N/A,,Clear,180,2013-09-06 10:35:00
5:55 AM,75.2,65.5,72,30.07,10.0,South,5.8,-,N/A,,Clear,170,2013-09-06 10:55:00
6:15 AM,75.2,65.8,73,30.07,10.0,SSE,5.8,-,N/A,,Clear,160,2013-09-06 11:15:00
6:35 AM,74.7,66.2,75,30.08,10.0,SSE,5.8,-,N/A,,Clear,160,2013-09-06 11:35:00
6:55 AM,75.2,66.2,73,30.08,10.0,South,6.9,-,N/A,,Clear,180,2013-09-06 11:55:00
7:15 AM,75.4,66.2,73,30.08,10.0,South,5.8,-,N/A,,Clear,170,2013-09-06 12:15:00
7:35 AM,74.8,66.4,75,30.09,10.0,SSE,3.5,-,N/A,,Clear,160,2013-09-06 12:35:00
7:55 AM,75.2,66.7,75,30.10,10.0,SSE,4.6,-,N/A,,Clear,160,2013-09-06 12:55:00
8:15 AM,76.8,67.1,72,30.10,10.0,SSE,3.5,-,0.01,,Clear,150,2013-09-06 13:15:00
8:35 AM,77.9,67.3,70,30.11,10.0,Calm,Calm,-,0.01,,Clear,0,2013-09-06 13:35:00
8:55 AM,80.8,67.1,63,30.11,10.0,SW,5.8,-,0.01,,Clear,230,2013-09-06 13:55:00
9:15 AM,82.2,66.9,60,30.11,10.0,WSW,4.6,-,N/A,,Clear,240,2013-09-06 14:15:00
9:35 AM,83.7,67.5,58,30.12,7.0,SW,5.8,-,N/A,,Clear,230,2013-09-06 14:35:00
9:55 AM,84.7,67.1,55,30.12,10.0,West,3.5,-,N/A,,Clear,260,2013-09-06 14:55:00
10:15 AM,86.0,66.9,53,30.12,10.0,West,3.5,-,N/A,,Clear,280,2013-09-06 15:15:00
10:35 AM,87.1,66.9,51,30.12,10.0,Calm,Calm,-,N/A,,Clear,0,2013-09-06 15:35:00
10:55 AM,88.3,66.9,49,30.13,10.0,Calm,Calm,-,N/A,,Clear,0,2013-09-06 15:55:00
11:15 AM,89.4,66.9,47,30.12,10.0,Calm,Calm,-,N/A,,Scattered Clouds,0,2013-09-06 16:15:00
11:35 AM,91.0,64.2,41,30.12,10.0,SW,5.8,-,N/A,,Clear,230,2013-09-06 16:35:00
11:55 AM,92.8,63.0,37,30.11,10.0,SW,4.6,-,N/A,,Clear,230,2013-09-06 16:55:00
12:15 PM,93.4,62.6,36,30.11,10.0,SSW,4.6,-,N/A,,Clear,200,2013-09-06 17:15:00
12:35 PM,93.6,61.2,34,30.10,10.0,WSW,8.1,-,0.01,,Clear,250,2013-09-06 17:35:00
12:55 PM,92.8,61.3,35,30.08,10.0,Calm,Calm,-,0.01,,Mostly Cloudy,0,2013-09-06 17:55:00
1:15 PM,94.5,59.5,31,30.08,10.0,West,3.5,-,N/A,,Overcast,260,2013-09-06 18:15:00
1:35 PM,95.2,60.8,32,30.07,10.0,WSW,4.6,-,N/A,,Overcast,250,2013-09-06 18:35:00
1:55 PM,96.3,59.5,29,30.06,10.0,Calm,Calm,-,N/A,,Mostly Cloudy,0,2013-09-06 18:55:00
2:15 PM,95.4,59.4,30,30.05,10.0,Calm,Calm,-,N/A,,Scattered Clouds,0,2013-09-06 19:15:00
2:35 PM,95.7,59.5,30,30.04,10.0,WNW,3.5,-,N/A,,Mostly Cloudy,290,2013-09-06 19:35:00
2:55 PM,95.0,58.6,30,30.03,10.0,West,3.5,-,N/A,,Mostly Cloudy,270,2013-09-06 19:55:00
3:15 PM,94.6,58.3,30,30.03,10.0,NNW,3.5,-,N/A,,Mostly Cloudy,340,2013-09-06 20:15:00
3:35 PM,95.0,59.4,30,30.01,10.0,NE,3.5,-,N/A,,Overcast,50,2013-09-06 20:35:00
3:55 PM,94.5,58.8,30,30.01,10.0,ENE,3.5,-,N/A,,Overcast,70,2013-09-06 20:55:00
4:15 PM,87.8,62.6,43,30.01,10.0,ESE,28.8,39.1,N/A,,Overcast,110,2013-09-06 21:15:00
4:35 PM,78.8,66.7,66,30.03,5.0,ESE,18.4,31.1,N/A,Rain,Heavy Rain,120,2013-09-06 21:35:00
4:55 PM,80.4,65.7,61,30.02,4.0,SE,6.9,-,N/A,Rain,Light Rain,140,2013-09-06 21:55:00
5:15 PM,80.8,67.5,64,30.01,10.0,SSW,3.5,-,N/A,,Mostly Cloudy,200,2013-09-06 22:15:00
5:35 PM,83.1,68.2,61,29.99,10.0,SW,4.6,-,N/A,,Scattered Clouds,230,2013-09-06 22:35:00
5:55 PM,85.5,68.5,57,29.99,10.0,Calm,Calm,-,N/A,,Clear,0,2013-09-06 22:55:00
6:15 PM,83.8,72.7,69,29.98,10.0,Calm,Calm,-,N/A,,Clear,0,2013-09-06 23:15:00
6:35 PM,84.2,72.1,67,29.98,10.0,East,3.5,-,N/A,,Scattered Clouds,100,2013-09-06 23:35:00
6:55 PM,85.8,68.7,56,29.98,10.0,SE,4.6,-,N/A,,Scattered Clouds,130,2013-09-06 23:55:00
7:15 PM,86.4,72.5,63,29.98,10.0,SE,4.6,-,N/A,,Mostly Cloudy,130,2013-09-07 00:15:00
7:35 PM,86.0,73.8,67,29.98,10.0,ESE,5.8,-,N/A,,Scattered Clouds,120,2013-09-07 00:35:00
7:55 PM,84.7,73.8,69,29.98,10.0,ESE,6.9,-,N/A,,Clear,120,2013-09-07 00:55:00
8:15 PM,83.8,74.3,73,29.98,10.0,SE,8.1,-,N/A,,Mostly Cloudy,130,2013-09-07 01:15:00
8:35 PM,84.4,72.7,68,29.98,10.0,SE,6.9,-,N/A,,Overcast,130,2013-09-07 01:35:00
8:55 PM,84.2,71.6,66,29.98,10.0,SE,8.1,-,N/A,,Overcast,140,2013-09-07 01:55:00
9:15 PM,84.2,68.4,59,29.99,10.0,SE,8.1,-,N/A,,Overcast,140,2013-09-07 02:15:00
9:35 PM,83.8,67.1,57,29.99,10.0,SE,8.1,-,N/A,,Overcast,140,2013-09-07 02:35:00
9:55 PM,83.3,67.6,59,29.99,10.0,SSE,8.1,-,N/A,,Overcast,150,2013-09-07 02:55:00
10:15 PM,82.9,65.7,56,30.00,10.0,SSE,9.2,-,N/A,,Scattered Clouds,150,2013-09-07 03:15:00
10:35 PM,82.4,64.2,54,30.00,10.0,SSE,8.1,-,N/A,,Scattered Clouds,150,2013-09-07 03:35:00
10:55 PM,81.9,64.0,55,30.00,10.0,SSE,8.1,-,N/A,,Clear,160,2013-09-07 03:55:00
11:15 PM,82.9,61.9,49,29.99,10.0,SSE,8.1,-,N/A,,Clear,160,2013-09-07 04:15:00
11:35 PM,82.0,62.6,52,30.00,10.0,SE,8.1,-,0.01,,Clear,130,2013-09-07 04:35:00
11:55 PM,81.1,63.3,55,30.00,10.0,SSE,8.1,-,0.01,,Scattered Clouds,150,2013-09-07 04:55:00